Dewpoint
48 45 42 42 42 39 37 31 33 30 28 27 26 26 26 28 28 26 27 33 35 37 39 40 40 40 40 41 41 43 46 50 54 56 56 56 56 58 58 59 59 58 57 57
46 41 43 43 42 41 35 31 30 30 29 27 27 27 27 28 26 25 28 33 35 37 38 39 40 40 40 40 40 41 42 45 52 56 57 57 57 58 55 53 51 52 53 53
40 43 43 42 39 39 35 35 35 33 30 29 27 26 26 25 26 29 32 34 36 36 37 39 39 40 40 40 40 40 40 41 42 46 50 50 50 48 46 46 44 45 45 43
43 45 43 41 41 40 39 36 34 31 30 25 27 24 25 24 25 29 32 35 36 38 39 40 40 40 40 40 41 41 41 41 41 42 42 42 42 41 43 43 42 41 43 42
41 43 44 42 40 42 40 36 35 32 27 25 25 23 24 23 24 28 31 34 36 38 39 39 39 40 40 41 40 41 41 41 42 41 42 41 41 41 41 40 39 40 40 41
39 43 44 44 43 40 37 33 28 27 25 24 25 24 22 23 23 27 31 32 35 38 39 39 40 39 39 40 41 41 41 41 41 41 41 40 39 38 37 37 37 38 38 39
34 41 39 42 38 32 34 33 29 24 24 23 24 23 23 24 24 26 30 31 35 38 39 39 38 38 39 39 40 41 41 40 41 39 38 38 38 37 36 36 35 34 34 34
33 32 34 30 38 36 34 32 25 21 22 22 24 22 21 26 30 28 31 31 35 37 38 39 38 38 39 40 40 39 39 38 39 38 36 35 34 34 33 32 32 32 32 33
34 32 26 26 28 38 28 29 28 26 26 25 26 23 25 28 28 29 30 31 35 37 38 38 38 38 39 40 39 37 36 36 36 36 34 31 29 28 27 28 29 27 28 26
29 25 27 23 23 23 27 28 26 26 23 22 23 21 23 23 26 30 30 30 34 36 37 38 37 39 40 39 37 35 34 34 33 33 30 27 25 24 24 23 21 21 23 23
27 25 27 24 24 25 24 24 25 26 25 21 19 19 23 23 25 29 30 31 34 36 37 38 37 40 39 37 34 32 31 30 29 30 26 21 18 19 19 19 20 19 19 20
31 27 24 25 30 27 24 23 24 24 22 22 20 22 24 26 26 31 31 32 33 35 37 38 38 39 37 34 31 29 28 27 26 26 20 16 16 16 14 15 17 17 16 17
33 29 28 29 30 32 27 24 23 24 23 21 20 20 25 26 30 32 32 33 33 34 37 37 39 38 36 32 28 25 24 23 23 19 14 12 12 12 12 13 14 14 14 15
35 31 26 27 27 29 28 27 24 24 23 22 21 22 23 25 28 30 31 33 34 35 36 38 39 38 34 29 26 24 22 20 19 13 10 10 10 11 11 13 13 13 14 14
31 28 28 26 29 30 28 27 26 24 24 24 24 23 23 25 26 27 29 31 34 36 35 39 39 36 31 27 25 23 20 14 14 9 9 10 11 12 12 12 13 13 13 13
30 27 24 21 22 23 26 29 27 26 25 24 25 24 26 29 30 33 34 34 34 36 34 39 39 35 31 26 24 21 17 8 9 9 9 10 11 12 12 13 12 12 12 12
25 24 23 22 22 20 19 21 29 28 27 27 25 25 26 31 32 32 33 34 34 35 33 38 37 33 28 24 23 18 10 7 7 8 8 10 11 12 12 12 12 12 12 13
23 22 19 16 22 16 19 29 23 25 24 24 26 30 31 33 33 32 32 34 35 34 36 38 34 29 25 23 18 12 7 6 6 6 8 10 11 12 12 12 12 12 12 13
25 23 21 16 16 21 28 28 27 25 29 32 32 32 32 32 32 32 35 35 34 34 37 35 31 26 22 17 10 5 5 5 5 7 9 10 12 12 12 12 12 12 13 13
28 27 21 25 17 12 24 30 30 31 27 34 33 34 34 33 29 31 35 36 36 36 34 30 27 23 16 9 6 4 4 4 5 8 10 11 12 12 12 12 12 13 14 14
24 25 20 26 24 26 29 31 30 26 26 35 33 32 33 31 32 34 37 36 34 32 30 26 23 19 12 6 6 5 4 4 8 10 11 12 12 12 13 13 14 14 15 15
20 21 24 27 25 22 32 32 29 31 33 32 32 32 31 32 34 36 36 35 32 30 28 24 19 12 7 8 7 5 4 8 10 11 11 11 12 12 13 14 15 16 16 15
25 27 26 27 27 33 33 33 34 33 32 32 32 32 32 32 34 35 36 35 33 29 25 21 17 10 6 8 8 5 7 10 11 11 11 11 12 13 13 15 15 15 15 14
31 33 31 30 32 32 33 34 33 33 33 34 34 33 33 32 32 33 35 35 33 27 22 17 11 6 6 9 8 8 9 11 11 10 10 11 12 14 15 15 16 16 15 15
30 32 32 32 34 34 33 34 34 34 34 34 34 34 33 32 32 33 34 34 31 25 18 12 8 6 6 8 8 10 10 11 10 11 11 12 13 14 15 16 16 15 15 17
34 32 30 29 33 33 33 34 34 34 34 34 34 34 33 33 33 34 34 35 30 22 14 9 7 7 7 9 9 10 11 11 11 12 12 12 14 16 16 15 15 17 18 18
Wind_Speed
19 17 22 23 21 7 12 8 14 11 5 6 14 17 25 19 13 11 6 6 7 11 7 12 16 18 18 18 18 20 21 18 8 5 3 1 4 4 4 5 7 8 8 9
14 26 21 15 14 11 5 7 11 12 3 3 16 22 25 18 12 5 10 9 7 9 12 13 16 18 18 17 21 23 23 21 16 7 5 4 6 9 10 13 16 16 16 15
17 10 20 19 13 17 10 13 11 11 12 6 10 13 10 3 2 7 9 7 7 10 12 12 15 16 18 21 21 22 21 21 21 16 11 11 9 10 14 15 15 16 16 17
9 7 23 23 19 13 19 11 10 9 8 8 7 12 11 9 8 10 11 11 10 11 7 12 14 16 17 16 17 20 20 20 20 18 21 22 17 16 9 10 10 15 17 18
10 21 19 21 24 17 9 7 11 10 7 5 3 8 7 2 11 12 13 11 9 10 11 12 14 14 13 14 17 17 20 21 20 22 20 18 18 12 10 13 17 17 15 17
4 9 17 11 11 20 9 5 2 3 0 9 12 15 10 5 9 12 11 12 12 12 11 11 12 13 15 15 17 18 21 20 20 21 20 21 20 17 18 19 19 16 14 14
4 7 5 13 13 5 7 10 2 4 7 10 1 5 16 8 7 15 24 19 15 12 13 12 14 14 15 15 14 16 19 19 18 20 21 20 19 19 18 16 16 18 17 16
14 12 15 10 10 10 15 14 8 7 6 4 3 9 6 3 9 9 18 22 16 14 12 12 12 13 15 15 15 16 17 18 18 18 19 17 17 15 14 14 14 13 13 13
14 8 7 12 8 19 8 22 6 3 1 2 5 7 11 5 6 6 22 23 20 15 14 13 11 13 14 14 13 13 16 16 16 15 15 16 16 16 14 13 10 12 12 14
9 7 2 4 9 4 13 15 8 3 5 5 4 7 10 8 4 6 20 24 17 13 13 12 12 14 13 12 12 14 15 16 14 14 14 13 14 13 14 14 16 15 13 14
11 6 4 10 10 14 7 10 3 6 4 3 3 4 3 9 8 14 18 15 17 15 15 14 13 13 12 11 12 13 14 14 14 12 12 15 17 15 12 12 13 14 13 14
4 8 16 5 1 7 5 10 11 12 6 2 2 11 4 8 6 10 13 10 13 14 15 14 16 14 11 11 11 12 12 13 12 12 14 13 13 13 16 15 13 12 13 13
12 5 14 5 2 1 7 6 7 7 4 12 9 6 6 7 8 9 13 12 15 13 13 13 14 12 11 10 10 11 11 11 10 10 11 13 14 14 15 15 14 14 15 16
8 5 9 20 9 10 9 12 11 12 12 9 12 7 3 4 8 7 5 6 10 13 16 15 13 11 10 9 9 9 9 9 8 11 12 13 13 13 14 14 14 15 15 15
4 6 5 3 6 11 11 20 22 23 19 15 12 16 4 6 5 4 3 1 6 12 14 15 15 12 10 9 7 7 7 8 8 9 10 11 12 13 13 15 15 13 13 15
3 4 5 3 4 3 4 9 19 13 10 10 7 7 3 3 3 2 2 2 3 9 14 15 14 12 10 8 6 5 4 6 6 7 9 11 13 13 14 15 16 16 16 16
8 9 6 5 3 3 6 16 17 11 8 12 19 11 7 4 8 6 4 3 3 8 13 16 14 12 11 8 6 4 3 3 4 6 10 12 13 14 15 16 16 17 18 18
9 8 3 5 4 6 2 1 11 10 4 6 9 9 7 9 4 2 4 5 8 4 11 15 14 12 10 6 5 4 2 3 8 10 10 10 12 15 15 16 16 18 16 17
3 8 6 7 9 4 2 7 10 9 5 5 12 10 7 5 3 2 5 4 6 5 13 16 14 11 9 6 4 3 3 7 8 9 10 12 13 15 14 17 18 17 16 18
8 10 4 4 4 8 1 4 7 5 6 10 11 10 8 5 0 3 5 3 2 8 14 16 12 10 9 5 4 3 5 6 8 10 11 12 13 14 19 17 18 14 15 19
5 5 6 5 5 5 4 6 4 8 5 10 10 10 8 4 3 1 2 3 7 9 12 11 10 8 6 5 3 3 4 6 8 9 11 13 15 16 15 15 15 17 19 18
10 10 7 5 4 9 5 5 7 7 8 13 9 6 5 4 2 4 7 9 10 11 10 8 8 6 4 4 3 2 6 7 8 10 12 15 16 15 14 16 17 16 16 18
5 5 5 10 5 2 1 3 11 10 14 8 6 6 4 3 0 1 1 7 9 10 8 6 6 6 4 3 2 5 7 8 10 12 15 16 16 15 15 15 17 17 16 17
3 2 2 5 4 5 10 10 7 8 8 7 4 3 3 2 1 1 2 6 8 8 7 6 6 5 3 1 2 5 8 9 11 14 16 17 17 17 13 12 13 14 16 17
3 7 5 1 4 3 4 4 9 8 7 6 4 3 2 0 2 2 4 8 9 9 8 7 5 3 3 3 6 7 9 9 12 14 16 15 14 15 16 14 14 15 14 16
7 7 9 7 10 5 10 8 6 8 5 5 2 1 1 1 3 3 5 7 9 9 8 6 4 1 4 6 8 10 10 10 12 14 13 14 14 13 15 17 18 15 19 23
Wind_Direction
196 190 191 190 195 197 199 212 226 250 262 290 289 284 283 285 279 277 205 147 102 83 60 51 48 46 46 44 44 41 42 33 61 67 55 343 307 327 351 348 335 323 313 305
189 203 198 176 181 198 193 218 248 283 248 281 310 296 286 279 276 248 181 159 137 104 74 58 54 52 49 50 48 46 44 42 47 66 69 84 78 67 58 45 45 41 45 38
200 208 191 173 169 192 213 223 253 267 326 315 322 291 281 301 191 126 143 147 138 120 112 92 72 62 55 54 53 54 50 49 48 51 65 68 62 51 45 36 38 33 40 37
215 174 175 176 185 183 221 217 242 266 312 284 25 292 282 274 208 165 152 154 151 135 126 106 92 73 67 63 63 62 57 54 50 52 67 71 68 67 44 38 28 29 28 27
182 176 177 176 198 181 219 165 224 249 264 307 262 274 271 231 217 193 177 167 175 152 135 116 100 91 81 75 72 68 65 59 55 58 62 68 65 57 41 30 28 21 16 18
203 160 164 163 181 185 167 95 81 64 115 267 254 221 280 235 223 189 181 177 179 156 142 118 104 99 90 80 73 72 71 60 57 59 56 58 54 43 37 24 21 11 7 5
199 175 154 161 166 128 149 139 249 228 220 240 352 222 248 247 250 198 186 183 180 167 153 135 119 105 99 89 80 73 73 66 61 61 55 50 48 44 37 25 16 10 4 1
174 205 175 172 194 168 186 178 178 199 207 254 122 241 255 275 289 244 183 170 166 169 163 145 128 119 113 100 86 79 74 68 59 59 55 51 46 43 35 25 18 9 359 347
171 189 180 173 139 159 193 209 211 77 29 286 237 278 288 346 21 161 168 160 170 170 164 148 130 127 117 99 88 86 80 70 61 59 57 48 41 37 28 20 15 5 357 352
169 114 154 140 111 98 192 164 183 207 236 243 269 275 248 336 343 172 170 169 167 165 162 148 137 129 112 103 94 80 75 72 63 58 51 44 35 29 23 18 12 1 349 345
142 121 153 155 194 173 156 181 130 162 171 206 308 274 237 294 293 203 184 173 167 170 171 160 145 131 120 105 87 79 69 63 54 52 44 37 28 20 14 12 4 356 345 341
170 121 159 168 231 184 170 176 179 202 207 194 195 270 344 311 294 178 172 166 177 185 179 161 150 140 125 103 85 74 66 60 50 47 42 34 23 15 12 4 353 347 345 343
169 129 139 154 176 228 197 181 155 128 131 207 213 257 1 51 106 144 164 186 194 188 170 157 151 144 125 104 87 73 61 55 52 50 41 29 20 12 4 355 352 351 347 343
130 152 170 195 196 159 192 190 181 185 216 206 226 264 353 84 134 155 164 186 212 195 175 165 154 139 123 104 90 76 63 50 46 40 31 20 12 4 359 344 346 346 339 332
151 160 144 90 169 170 191 196 195 207 212 215 242 232 197 156 203 242 291 187 199 195 177 166 159 146 132 112 96 77 59 45 40 34 22 8 1 357 350 345 343 335 336 335
102 154 117 103 88 157 203 205 201 203 193 212 157 210 204 126 118 80 12 9 190 192 183 169 159 151 138 126 110 94 72 45 36 28 14 6 358 350 345 343 343 340 332 331
174 143 156 176 133 129 262 221 197 198 188 187 216 214 154 116 118 84 43 355 271 216 187 174 163 153 143 138 142 122 81 40 22 22 13 2 350 345 344 340 336 331 332 324
146 129 102 134 134 221 231 228 196 161 164 157 122 123 136 142 117 44 13 332 317 256 180 163 156 144 146 143 125 123 82 22 20 8 355 351 345 343 337 331 328 329 322 319
99 138 131 167 197 300 210 174 155 169 178 157 133 125 115 108 70 25 12 353 304 206 170 161 156 151 136 128 131 114 29 22 5 344 337 349 344 335 326 333 330 317 315 321
69 84 116 145 195 226 217 138 139 123 221 181 148 139 136 123 56 237 339 347 45 136 145 147 140 133 135 135 126 86 26 356 342 334 335 337 330 330 333 317 311 310 313 310
124 78 182 173 237 278 203 150 152 176 208 147 141 136 138 171 199 174 128 131 141 140 136 132 134 139 142 142 98 45 351 333 323 324 331 331 335 324 305 307 308 312 309 304
179 159 173 149 200 258 160 123 185 145 119 136 137 152 169 190 184 154 166 159 153 147 141 139 135 136 128 92 60 345 313 314 325 329 327 326 316 314 309 308 306 303 302 308
197 174 190 191 214 121 113 148 132 134 144 163 163 177 171 168 100 41 205 179 178 170 156 143 137 138 140 123 57 318 314 328 329 329 324 316 313 308 304 303 306 310 311 311
220 171 156 156 187 131 120 118 128 136 139 142 114 127 145 169 97 317 210 186 179 172 172 156 151 164 174 147 282 292 321 333 329 318 314 312 308 310 305 297 295 301 306 303
177 157 160 155 150 117 188 152 151 130 110 104 80 65 61 324 276 253 199 186 185 179 171 161 158 164 249 289 328 330 327 325 316 310 305 301 300 302 309 306 301 302 297 300
190 183 186 222 191 165 190 165 135 128 111 90 82 40 14 289 249 210 207 188 177 175 161 152 163 215 315 327 321 320 325 319 308 308 308 306 310 311 311 306 308 302 306 312